Fryeburg, ME

5:58 AM EDT on August 27, 2016 (GMT -0400)
Eastern Slopes Regional

Weather History for KIZG - June, 2012

Change the Weather History Date:

Monday, June 4, 2012

  Actual Average Record
Temperature  
Mean Temperature 51 °F -  
Max Temperature 54 °F 70 °F 82 °F (2016)
Min Temperature 48 °F 44 °F 28 °F (2002)
Degree Days  
Heating Degree Days 14    
Growing Degree Days 1 (Base 50)    
Moisture  
Dew Point 48 °F    
Average Humidity 91    
Maximum Humidity 100    
Minimum Humidity 83    
Precipitation  
Precipitation 0.46 in - - ()
Sea Level Pressure  
Sea Level Pressure 29.77 in    
Wind  
Wind Speed 7 mph (NNE)    
Max Wind Speed 10 mph    
Max Gust Speed 20 mph    
Visibility 8 miles    
Events Rain    
Averages and records for this station are not official NWS values.
T = Trace of Precipitation, MM = Missing Value Source: NWS Daily Summary

Daily Weather History Graph

Daily Weather History Graph

Search for Another Location

Airport or City:

Trip Planner

Search our weather history database for the weather conditions in past years. The results will help you decide how hot, cold, wet, or windy it might be!

Date:

Astronomy

Jun. 04, 2012 Rise Set
Actual Time 5:02 AM EDT 8:22 PM EDT
Civil Twilight 4:26 AM EDT 8:58 PM EDT
Nautical Twilight 3:40 AM EDT 9:44 PM EDT
Astronomical Twilight 2:42 AM EDT 10:42 PM EDT
Moon 8:48 PM EDT (6/4) 5:06 AM EDT (6/4)
Length of Visible Light 16h 31m
Length of Day
15h 19m
Full, 100% of the Moon is Illuminated
Jun 4
Full
Jun 11
Last Quarter
Jun 19
New
Jun 26
First Quarter
Jul 3
Full

Hourly Weather History & Observations

Time (EDT) Temp. Dew Point Humidity Pressure Visibility Wind Dir Wind Speed Gust Speed Precip Events Conditions
12:05 AM 51.8 °F 48.2 °F 88% 29.73 in 10.0 mi North 6.9 mph - 0.00 in Rain Light Rain
12:22 AM 51.8 °F 48.2 °F 88% 29.73 in 10.0 mi North 8.1 mph - 0.00 in Rain Light Rain
12:54 AM 51.1 °F 48.9 °F 92% 29.74 in 6.0 mi NNE 8.1 mph - 0.01 in Rain Light Rain
1:26 AM 51.8 °F 48.2 °F 88% 29.73 in 9.0 mi NNE 6.9 mph - 0.01 in Rain Light Rain
1:54 AM 50.0 °F 48.0 °F 93% 29.73 in 10.0 mi NE 6.9 mph 18.4 mph 0.02 in Rain Light Rain
2:05 AM 50.0 °F 48.2 °F 94% 29.72 in 10.0 mi NE 10.4 mph 17.3 mph 0.01 in Rain Light Rain
2:21 AM 50.0 °F 48.2 °F 94% 29.71 in 10.0 mi NNE 5.8 mph - 0.01 in Rain Light Rain
2:54 AM 50.0 °F 46.9 °F 89% 29.73 in 10.0 mi NNE 8.1 mph - 0.02 in Rain Light Rain
3:44 AM 48.2 °F 46.4 °F 93% 29.71 in 10.0 mi NNE 6.9 mph - 0.02 in Rain Light Rain
3:54 AM 48.9 °F 46.9 °F 93% 29.72 in 10.0 mi North 5.8 mph - 0.03 in Rain Light Rain
4:39 AM 48.2 °F 46.4 °F 93% 29.69 in 8.0 mi Variable 4.6 mph - 0.02 in Rain Light Rain
4:54 AM 48.9 °F 46.9 °F 93% 29.71 in 9.0 mi North 4.6 mph - 0.03 in Rain Light Rain
5:02 AM 48.2 °F 46.4 °F 93% 29.70 in 8.0 mi North 3.5 mph - 0.01 in Rain Light Rain
5:24 AM 48.2 °F 46.4 °F 93% 29.70 in 9.0 mi North 3.5 mph - 0.03 in Rain Light Rain
6:54 AM 50.0 °F 48.0 °F 93% 29.73 in 10.0 mi NNE 9.2 mph - 0.06 in Rain Light Rain
7:18 AM 50.0 °F 46.4 °F 87% 29.72 in 10.0 mi North 9.2 mph - 0.01 in Rain Light Rain
7:38 AM 48.2 °F 46.4 °F 93% 29.73 in 4.0 mi Variable 5.8 mph - 0.03 in Rain Light Rain
7:54 AM 48.9 °F 48.0 °F 97% 29.74 in 2.5 mi North 6.9 mph - 0.04 in Rain Light Rain
8:00 AM 48.2 °F 48.2 °F 100% 29.73 in 2.0 mi Variable 5.8 mph - 0.01 in Rain Light Rain
8:19 AM 48.2 °F 48.2 °F 100% 29.73 in 2.0 mi NNE 5.8 mph - 0.02 in Rain Light Rain
8:22 AM 48.2 °F 48.2 °F 100% 29.73 in 1.8 mi NNE 5.8 mph - 0.03 in Rain Light Rain
8:26 AM 48.2 °F 48.2 °F 100% 29.74 in 2.0 mi NNE 8.1 mph - 0.03 in Rain Light Rain
8:51 AM 48.2 °F 46.4 °F 93% 29.74 in 3.0 mi NE 9.2 mph - 0.04 in Rain Light Rain
8:54 AM 48.9 °F 46.9 °F 93% 29.75 in 3.0 mi NE 6.9 mph - 0.05 in Rain Light Rain
9:01 AM 48.2 °F 46.4 °F 93% 29.75 in 3.0 mi NE 8.1 mph - 0.00 in Rain Light Rain
9:54 AM 48.9 °F 46.0 °F 90% 29.77 in 3.0 mi NNE 8.1 mph 19.6 mph 0.03 in Rain Light Rain
10:24 AM 48.2 °F 46.4 °F 93% 29.77 in 10.0 mi North 8.1 mph 16.1 mph 0.01 in Rain Light Rain
10:32 AM 48.2 °F 46.4 °F 93% 29.77 in 10.0 mi North 8.1 mph - 0.01 in Rain Light Rain
10:54 AM 48.9 °F 46.9 °F 93% 29.80 in 8.0 mi North 8.1 mph - 0.01 in Rain Light Rain
11:29 AM 48.2 °F 46.4 °F 93% 29.80 in 8.0 mi NNE 10.4 mph - 0.03 in Rain Light Rain
11:50 AM 50.0 °F 46.4 °F 87% 29.79 in 9.0 mi NNE 9.2 mph - 0.04 in Rain Light Rain
11:54 AM 50.0 °F 46.9 °F 89% 29.81 in 10.0 mi NNE 6.9 mph - 0.04 in Rain Light Rain
12:54 PM 51.1 °F 48.0 °F 89% 29.81 in 10.0 mi NNE 6.9 mph - 0.02 in Rain Light Rain
1:05 PM 50.0 °F 48.2 °F 94% 29.80 in 10.0 mi NNE 9.2 mph - 0.00 in Rain Light Rain
1:37 PM 51.8 °F 48.2 °F 88% 29.81 in 10.0 mi NE 5.8 mph - 0.02 in Rain Light Rain
1:54 PM 51.1 °F 48.0 °F 89% 29.82 in 9.0 mi NNE 6.9 mph - 0.03 in Rain Light Rain
2:20 PM 51.8 °F 48.2 °F 88% 29.81 in 10.0 mi NE 6.9 mph - 0.02 in Rain Light Rain
2:54 PM 51.1 °F 48.0 °F 89% 29.82 in 10.0 mi NNE 8.1 mph - 0.02 in Rain Light Rain
3:05 PM 51.8 °F 48.2 °F 88% 29.81 in 10.0 mi NE 6.9 mph - 0.00 in Rain Light Rain
3:54 PM 50.0 °F 46.9 °F 89% 29.83 in 8.0 mi NE 6.9 mph - 0.00 in   Overcast
4:22 PM 51.8 °F 48.2 °F 88% 29.81 in 10.0 mi NNE 5.8 mph - N/A   Overcast
4:54 PM 52.0 °F 48.0 °F 86% 29.82 in 10.0 mi North 5.8 mph - 0.00 in Rain Light Rain
5:54 PM 54.0 °F 48.9 °F 83% 29.81 in 10.0 mi North 5.8 mph - 0.00 in Rain Light Rain
6:27 PM 51.8 °F 48.2 °F 88% 29.81 in 2.5 mi NNE 8.1 mph - 0.04 in Rain Light Rain
6:36 PM 51.8 °F 48.2 °F 88% 29.82 in 4.0 mi NNE 10.4 mph 16.1 mph 0.04 in Rain Light Rain
6:54 PM 51.1 °F 48.9 °F 92% 29.83 in 8.0 mi NNE 8.1 mph - 0.04 in Rain Light Rain
7:52 PM 51.8 °F 48.2 °F 88% 29.83 in 10.0 mi Calm Calm - 0.00 in   Overcast
7:54 PM 51.1 °F 48.9 °F 92% 29.84 in 10.0 mi Calm Calm - 0.00 in   Overcast
8:02 PM 50.0 °F 48.2 °F 94% 29.83 in 10.0 mi NNW 3.5 mph - N/A   Overcast
8:54 PM 51.1 °F 48.9 °F 92% 29.85 in 10.0 mi Calm Calm - N/A   Overcast
9:54 PM 50.0 °F 48.0 °F 93% 29.85 in 10.0 mi NNW 3.5 mph - N/A   Overcast
10:54 PM 50.0 °F 48.0 °F 93% 29.84 in 10.0 mi NW 3.5 mph - 0.00 in   Overcast
11:54 PM 51.1 °F 46.9 °F 86% 29.85 in 9.0 mi NE 6.9 mph - 0.01 in Rain Light Rain